Weather History for Rolla, MO

Change the Weather History Date:

Sunday, March 9, 2014

  Actual Average Record
Temperature  
Mean Temperature 40 °F 43 °F  
Max Temperature 57 °F 54 °F 78 °F (1974)
Min Temperature 23 °F 32 °F 11 °F (1969)
Degree Days  
Heating Degree Days 25 22  
Month to date heating degree days 296 213  
Since 1 July heating degree days 4602 4003  
Cooling Degree Days 0 0  
Month to date cooling degree days 0 0  
Year to date cooling degree days 0 0  
Moisture  
Dew Point 29 °F    
Average Humidity 66    
Maximum Humidity 96    
Minimum Humidity 35    
Precipitation  
Precipitation 0.00 in 0.09 in 1.60 in (1974)
Month to date precipitation T 0.79  
Year to date precipitation 1.46 4.89  
Sea Level Pressure  
Sea Level Pressure 30.19 in    
Wind  
Wind Speed 8 mph (SW)    
Max Wind Speed 17 mph    
Max Gust Speed 22 mph    
Visibility 8 miles    
Events      
T = Trace of Precipitation, MM = Missing Value Source: NWS Daily Summary

Daily Weather History Graph

Daily Weather History Graph

Search for Another Location

Airport:

Trip Planner

Search our weather history database for the weather conditions in past years. The results will help you decide how hot, cold, wet, or windy it might be!

Date:

Astronomy

Mar. 09, 2014 Rise Set
Actual Time 7:27 AM CDT 7:08 PM CDT
Civil Twilight 7:00 AM CDT 7:34 PM CDT
Nautical Twilight 6:30 AM CDT 8:05 PM CDT
Astronomical Twilight 5:59 AM CDT 8:36 PM CDT
Moon 1:05 PM CDT (3/9) 3:49 AM CDT (3/9)
Length of Visible Light 12h 33m
Length of Day
11h 41m
First Quarter, 61% of the Moon is Illuminated
Mar 9
First Quarter
Mar 16
Full
Mar 23
Last Quarter
Mar 30
New
Apr 7
First Quarter

Hourly Weather History & Observations

Time (CDT) Temp. Windchill Dew Point Humidity Pressure Visibility Wind Dir Wind Speed Gust Speed Precip Events Conditions
12:53 AM 33.1 °F 27.7 °F 28.0 °F 82% 30.29 in 5.0 mi NNE 5.8 mph - N/A   Haze
1:53 AM 33.1 °F 30.0 °F 27.0 °F 78% 30.31 in 5.0 mi North 3.5 mph - N/A   Haze
3:53 AM 32.0 °F - 26.1 °F 79% 30.30 in 6.0 mi Calm Calm - N/A   Haze
4:53 AM 32.0 °F 28.7 °F 27.0 °F 82% 30.30 in 5.0 mi North 3.5 mph - N/A   Haze
5:53 AM 32.0 °F - 26.1 °F 79% 30.30 in 6.0 mi Calm Calm - N/A   Haze
6:53 AM 28.0 °F 22.8 °F 24.1 °F 85% 30.30 in 5.0 mi SSE 4.6 mph - N/A   Scattered Clouds
7:53 AM 23.0 °F - 21.0 °F 92% 30.31 in 3.0 mi Calm Calm - N/A   Clear
8:53 AM 32.0 °F 28.7 °F 28.0 °F 85% 30.32 in 4.0 mi SW 3.5 mph - N/A   Clear
9:53 AM 35.1 °F 27.9 °F 28.0 °F 76% 30.30 in 4.0 mi SSW 9.2 mph - N/A   Haze
10:53 AM 37.9 °F 31.5 °F 28.9 °F 70% 30.30 in 5.0 mi WSW 9.2 mph - N/A   Haze
11:53 AM 41.0 °F 35.2 °F 28.9 °F 62% 30.28 in 7.0 mi South 9.2 mph - N/A   Clear
12:53 PM 46.0 °F 41.9 °F 30.0 °F 54% 30.25 in 8.0 mi WSW 8.1 mph - N/A   Clear
1:53 PM 48.9 °F - 28.9 °F 46% 30.20 in 10.0 mi SW 8.1 mph 17.3 mph N/A   Clear
2:53 PM 53.1 °F - 30.0 °F 41% 30.15 in 10.0 mi SW 11.5 mph - N/A   Clear
3:53 PM 55.0 °F - 30.0 °F 38% 30.12 in 10.0 mi SSW 12.7 mph - N/A   Clear
4:53 PM 55.9 °F - 28.9 °F 36% 30.08 in 10.0 mi SW 17.3 mph - N/A   Clear
5:53 PM 55.9 °F - 30.0 °F 37% 30.06 in 10.0 mi SW 11.5 mph - N/A   Clear
6:53 PM 52.0 °F - 30.0 °F 43% 30.06 in 10.0 mi SW 10.4 mph - N/A   Clear
7:53 PM 48.0 °F - 28.9 °F 48% 30.05 in 10.0 mi SW 9.2 mph - N/A   Clear
8:53 PM 46.0 °F 41.0 °F 30.0 °F 54% 30.05 in 10.0 mi SSW 10.4 mph - N/A   Clear
9:53 PM 45.0 °F 39.3 °F 32.0 °F 60% 30.05 in 10.0 mi SSW 11.5 mph - N/A   Clear
10:53 PM 43.0 °F 37.2 °F 33.1 °F 68% 30.05 in 10.0 mi SW 10.4 mph - N/A   Clear
11:53 PM 42.1 °F 36.1 °F 35.1 °F 76% 30.03 in 10.0 mi SSW 10.4 mph - N/A   Clear
12:53 AM 42.1 °F 35.7 °F 36.0 °F 79% 30.01 in 10.0 mi SW 11.5 mph - N/A   Clear